sat.trackr.live / text

‹ back to catalog

NESS

NORAD 58020 · 2023-155E

PAYLOAD ACTIVE UNKNOWN

§ Identity

Operator
Country
FR
Launch date
2023-10-09
Launch site
FRGUI
Launch vehicle
Mass (kg)
RCS (m²)

External: N2YO · Heavens-Above · Gunter

§ Orbital elements

Epoch: 2026-05-25T04:16:19.188768Z

Period
94.16 min
Inclination
97.5907°
Eccentricity
0.0004546
Mean motion
15.29340332 rev/d
Perigee alt
474.7 km
Apogee alt
480.9 km
Semi-major
6,855.9 km
B*
5.9429e-4
RAAN
230.4769°
Arg perigee
276.4482°
Mean anomaly
83.6240°
Rev number
14,497

§ Raw data

NESS1 58020U 23155E   26145.17799987  .00016858  00000+0  59429-3 0  99952 58020  97.5907 230.4769 0004546 276.4482  83.6240 15.29340332144977

JSON: /api/v1/satellites/58020 · /tle

For live sub-satellite position, see the globe view (requires WebGL).

§ Visibility from observer

Set your observer location to see the next 7 days of passes ≥ 10°. The values pass through the URL so the page stays shareable.

No JS? Fill the form by hand. The geolocation button needs JavaScript.